Location: Czu?�w
(50.1404°N, 18.9919°E)
Time: 02:36:02
(UTC+00:00)

Meteor 2-10 Rocket - Pass Details

Date: 27 October 2020
Orbit: 733 x 885 km, 81.2° (Epoch: 24 November)

Event Time Altitude Azimuth Distance (km) Brightness Sun altitude
Rises 16:56:18 0° 171° (S) 3,305 6.7 -14.6°
Reaches altitude 10° 16:58:47 10° 165° (SSE) 2,355 5.9 -15.0°
Maximum altitude 17:03:47 44° 94° (E) 1,054 3.8 -15.8°
Drops below altitude 10° 17:08:39 10° 24° (NNE) 2,289 5.7 -16.5°
Sets 17:11:02 0° 18° (NNE) 3,203 6.5 -16.9°
